Location: La Loche
(56.4820°N, 109.4353°W)
Time: 10:48:25
(UTC-06:00)

Envisat - Visible Passes

Search period start: 15 October 2019 00:00
Search period end: 25 October 2019 00:00
Orbit: 764 x 766 km, 98.1° (Epoch: 15 October)

Date Brightness Start Highest point End Pass type
(mag) Time Alt. Az. Time Alt. Az. Time Alt. Az.
15 Oct 6.4 06:40:47 10° NE 06:42:59 13° E 06:45:10 10° ESE visible
15 Oct 4.1 19:40:47 10° S 19:45:42 48° W 19:50:39 10° NNW visible
16 Oct 3.1 19:03:43 10° SSE 19:08:49 87° WSW 19:13:57 10° NNW visible
16 Oct 5.8 20:45:11 10° SW 20:48:36 18° W 20:52:03 10° NW visible
17 Oct 6.0 07:05:14 10° NE 07:08:54 19° E 07:12:32 10° SE visible
17 Oct 4.9 20:06:52 10° SSW 20:11:24 32° W 20:15:57 10° NNW visible
18 Oct 6.7 06:30:46 10° ENE 06:31:30 10° ENE 06:32:15 10° E visible
18 Oct 3.7 19:29:23 10° S 19:34:23 58° W 19:39:26 10° NNW visible
18 Oct 6.2 21:12:51 10° W 21:14:33 12° W 21:16:15 10° WNW visible
19 Oct 3.0 18:52:28 10° SSE 18:57:33 79° ENE 19:02:39 10° NNW visible
19 Oct 5.6 20:33:21 10° SW 20:37:11 21° W 20:41:04 10° NW visible
20 Oct 6.1 06:54:18 10° NE 06:57:28 16° E 07:00:38 10° ESE visible
20 Oct 4.5 19:55:19 10° SSW 20:00:02 38° W 20:04:48 10° NNW visible
21 Oct 3.4 19:18:01 10° S 19:23:05 69° WSW 19:28:11 10° NNW visible
21 Oct 6.1 21:00:28 10° WSW 21:03:05 14° W 21:05:43 10° NW visible
22 Oct 5.7 07:19:10 10° NE 07:23:20 25° E 07:27:28 10° SE visible
22 Oct 3.0 18:41:16 10° SSE 18:46:18 67° ENE 18:51:22 10° NNW visible
22 Oct 5.3 20:21:37 10° SW 20:25:48 25° W 20:30:00 10° NW visible
23 Oct 6.3 06:43:30 10° NE 06:46:02 14° E 06:48:33 10° ESE visible
23 Oct 4.2 19:43:50 10° S 19:48:42 45° W 19:53:36 10° NNW visible
24 Oct 3.1 19:06:42 10° SSE 19:11:48 82° WSW 19:16:55 10° NNW visible
24 Oct 5.9 20:48:25 10° SW 20:51:39 17° W 20:54:54 10° NW visible
